Time,TemperatureF,DewpointF,PressureIn,WindDirection,WindDirectionDegrees,WindSpeedMPH,WindSpeedGustMPH,Humidity,HourlyPrecipIn,Conditions,Clouds,dailyrainin,SoftwareType,DateUTC
2013-06-15 00:09:00,40.1,17.0,29.78,West,259,0.0,1.0,39,0.00,,,0.00,weatherlink.com 1.10,2013-06-15 06:09:00,
2013-06-15 00:24:00,39.5,17.0,29.78,West,259,0.0,1.0,41,0.00,,,0.00,weatherlink.com 1.10,2013-06-15 06:24:00,
2013-06-15 00:39:00,38.5,18.0,29.78,West,259,0.0,1.0,43,0.00,,,0.00,weatherlink.com 1.10,2013-06-15 06:39:00,
2013-06-15 00:54:00,37.5,17.0,29.78,West,259,0.0,1.0,44,0.00,,,0.00,weatherlink.com 1.10,2013-06-15 06:54:00,
2013-06-15 01:10:00,37.3,17.0,29.78,West,259,0.0,1.0,43,0.00,,,0.00,weatherlink.com 1.10,2013-06-15 07:10:00,
2013-06-15 01:25:00,36.9,17.0,29.79,WSW,258,0.0,1.0,44,0.00,,,0.00,weatherlink.com 1.10,2013-06-15 07:25:00,
2013-06-15 01:40:00,36.3,17.0,29.79,WSW,258,0.0,1.0,46,0.00,,,0.00,weatherlink.com 1.10,2013-06-15 07:40:00,
2013-06-15 01:55:00,36.0,17.0,29.80,WSW,257,0.0,1.0,47,0.00,,,0.00,weatherlink.com 1.10,2013-06-15 07:55:00,
2013-06-15 02:10:00,35.3,16.0,29.80,WSW,257,0.0,1.0,46,0.00,,,0.00,weatherlink.com 1.10,2013-06-15 08:10:00,
2013-06-15 02:25:00,34.7,17.0,29.81,WSW,257,0.0,1.0,48,0.00,,,0.00,weatherlink.com 1.10,2013-06-15 08:25:00,
2013-06-15 02:40:00,34.2,18.0,29.81,WSW,257,0.0,1.0,51,0.00,,,0.00,weatherlink.com 1.10,2013-06-15 08:40:00,
2013-06-15 02:55:00,33.6,19.0,29.81,WSW,257,1.0,1.0,55,0.00,,,0.00,weatherlink.com 1.10,2013-06-15 08:55:00,
2013-06-15 03:10:00,33.8,18.0,29.81,WSW,257,0.0,1.0,52,0.00,,,0.00,weatherlink.com 1.10,2013-06-15 09:10:00,
2013-06-15 03:25:00,33.2,17.0,29.82,WSW,257,0.0,1.0,51,0.00,,,0.00,weatherlink.com 1.10,2013-06-15 09:25:00,
2013-06-15 03:41:00,32.4,18.0,29.82,WSW,257,0.0,1.0,56,0.00,,,0.00,weatherlink.com 1.10,2013-06-15 09:41:00,
2013-06-15 03:55:00,32.2,20.0,29.83,WSW,258,1.0,1.0,60,0.00,,,0.00,weatherlink.com 1.10,2013-06-15 09:55:00,
2013-06-15 04:10:00,32.2,19.0,29.84,WSW,256,1.0,2.0,58,0.00,,,0.00,weatherlink.com 1.10,2013-06-15 10:10:00,
2013-06-15 04:25:00,32.0,19.0,29.84,WSW,255,0.0,1.0,58,0.00,,,0.00,weatherlink.com 1.10,2013-06-15 10:25:00,
2013-06-15 04:40:00,31.5,19.0,29.85,WSW,254,1.0,2.0,59,0.00,,,0.00,weatherlink.com 1.10,2013-06-15 10:40:00,
2013-06-15 04:55:00,31.3,19.0,29.86,WSW,254,0.0,1.0,60,0.00,,,0.00,weatherlink.com 1.10,2013-06-15 10:55:00,
2013-06-15 05:10:00,31.0,19.0,29.86,WSW,252,1.0,1.0,61,0.00,,,0.00,weatherlink.com 1.10,2013-06-15 11:10:00,
2013-06-15 05:25:00,30.9,19.0,29.87,WSW,258,0.0,1.0,62,0.00,,,0.00,weatherlink.com 1.10,2013-06-15 11:25:00,
2013-06-15 05:40:00,31.1,19.0,29.88,WSW,257,0.0,1.0,62,0.00,,,0.00,weatherlink.com 1.10,2013-06-15 11:40:00,
2013-06-15 05:55:00,31.0,19.0,29.89,WSW,257,0.0,1.0,61,0.00,,,0.00,weatherlink.com 1.10,2013-06-15 11:55:00,
2013-06-15 06:10:00,31.2,19.0,29.89,WSW,257,0.0,1.0,60,0.00,,,0.00,weatherlink.com 1.10,2013-06-15 12:10:00,
2013-06-15 06:25:00,31.1,19.0,29.90,WSW,257,0.0,1.0,61,0.00,,,0.00,weatherlink.com 1.10,2013-06-15 12:25:00,
2013-06-15 06:41:00,31.2,19.0,29.90,WSW,257,1.0,1.0,62,0.00,,,0.00,weatherlink.com 1.10,2013-06-15 12:41:00,
2013-06-15 06:56:00,32.4,20.0,29.90,WSW,256,0.0,1.0,60,0.00,,,0.00,weatherlink.com 1.10,2013-06-15 12:56:00,
2013-06-15 07:11:00,34.2,21.0,29.90,WSW,256,0.0,1.0,58,0.00,,,0.00,weatherlink.com 1.10,2013-06-15 13:11:00,
2013-06-15 07:26:00,36.9,21.0,29.90,WSW,255,0.0,1.0,54,0.00,,,0.00,weatherlink.com 1.10,2013-06-15 13:26:00,
2013-06-15 07:41:00,38.6,24.0,29.90,WSW,255,0.0,1.0,55,0.00,,,0.00,weatherlink.com 1.10,2013-06-15 13:41:00,
2013-06-15 07:56:00,41.3,25.0,29.90,WSW,255,0.0,1.0,52,0.00,,,0.00,weatherlink.com 1.10,2013-06-15 13:56:00,
2013-06-15 08:11:00,43.6,26.0,29.89,WSW,255,0.0,0.0,51,0.00,,,0.00,weatherlink.com 1.10,2013-06-15 14:11:00,
2013-06-15 08:26:00,46.4,27.0,29.89,WSW,255,0.0,1.0,47,0.00,,,0.00,weatherlink.com 1.10,2013-06-15 14:26:00,
2013-06-15 08:41:00,51.9,27.0,29.89,ESE,104,1.0,3.0,38,0.00,,,0.00,weatherlink.com 1.10,2013-06-15 14:41:00,
2013-06-15 08:56:00,54.6,26.0,29.89,East,82,0.0,3.0,33,0.00,,,0.00,weatherlink.com 1.10,2013-06-15 14:56:00,
2013-06-15 09:11:00,56.5,28.0,29.89,ESE,104,3.0,4.0,33,0.00,,,0.00,weatherlink.com 1.10,2013-06-15 15:11:00,
2013-06-15 09:26:00,59.0,24.0,29.88,ESE,111,2.0,3.0,26,0.00,,,0.00,weatherlink.com 1.10,2013-06-15 15:26:00,
2013-06-15 09:41:00,61.5,17.0,29.88,East,98,3.0,7.0,18,0.00,,,0.00,weatherlink.com 1.10,2013-06-15 15:41:00,
2013-06-15 09:56:00,62.8,18.0,29.88,ESE,109,6.0,9.0,18,0.00,,,0.00,weatherlink.com 1.10,2013-06-15 15:56:00,
2013-06-15 10:11:00,63.3,15.0,29.88,SE,133,1.0,12.0,15,0.00,,,0.00,weatherlink.com 1.10,2013-06-15 16:11:00,
2013-06-15 10:26:00,64.4,17.0,29.88,East,101,0.0,9.0,16,0.00,,,0.00,weatherlink.com 1.10,2013-06-15 16:26:00,
2013-06-15 10:41:00,65.8,18.0,29.88,ESE,103,2.0,10.0,16,0.00,,,0.00,weatherlink.com 1.10,2013-06-15 16:41:00,
2013-06-15 10:56:00,66.9,21.0,29.88,ESE,109,2.0,10.0,17,0.00,,,0.00,weatherlink.com 1.10,2013-06-15 16:56:00,
2013-06-15 11:11:00,67.0,21.0,29.88,ESE,110,6.0,9.0,17,0.00,,,0.00,weatherlink.com 1.10,2013-06-15 17:11:00,
2013-06-15 11:26:00,67.9,23.0,29.88,North,360,2.0,10.0,18,0.00,,,0.00,weatherlink.com 1.10,2013-06-15 17:26:00,
2013-06-15 11:42:00,68.9,22.0,29.88,East,101,11.0,22.0,17,0.00,,,0.00,weatherlink.com 1.10,2013-06-15 17:42:00,
2013-06-15 11:57:00,67.5,21.0,29.88,ESE,108,1.0,15.0,17,0.00,,,0.00,weatherlink.com 1.10,2013-06-15 17:57:00,
2013-06-15 12:12:00,69.0,24.0,29.87,WSW,247,3.0,16.0,18,0.00,,,0.00,weatherlink.com 1.10,2013-06-15 18:12:00,
2013-06-15 12:27:00,68.6,22.0,29.86,ENE,75,4.0,16.0,17,0.00,,,0.00,weatherlink.com 1.10,2013-06-15 18:27:00,
2013-06-15 12:42:00,70.1,29.0,29.84,ESE,104,8.0,10.0,22,0.00,,,0.00,weatherlink.com 1.10,2013-06-15 18:42:00,
2013-06-15 12:57:00,68.4,24.0,29.85,ESE,122,5.0,15.0,19,0.00,,,0.00,weatherlink.com 1.10,2013-06-15 18:57:00,
2013-06-15 13:12:00,67.7,21.0,29.85,ESE,104,5.0,12.0,17,0.00,,,0.00,weatherlink.com 1.10,2013-06-15 19:12:00,
2013-06-15 13:27:00,70.6,26.0,29.85,ESE,108,9.0,23.0,19,0.00,,,0.00,weatherlink.com 1.10,2013-06-15 19:27:00,
2013-06-15 13:42:00,69.4,25.0,29.84,ESE,103,14.0,15.0,19,0.00,,,0.00,weatherlink.com 1.10,2013-06-15 19:42:00,
2013-06-15 13:57:00,69.4,27.0,29.84,ESE,120,4.0,15.0,20,0.00,,,0.00,weatherlink.com 1.10,2013-06-15 19:57:00,
2013-06-15 14:12:00,68.0,25.0,29.84,SE,126,3.0,13.0,20,0.00,,,0.00,weatherlink.com 1.10,2013-06-15 20:12:00,
2013-06-15 14:27:00,66.1,24.0,29.85,ESE,120,3.0,14.0,20,0.00,,,0.00,weatherlink.com 1.10,2013-06-15 20:27:00,
2013-06-15 14:42:00,64.3,28.0,29.87,ESE,106,1.0,11.0,25,0.00,,,0.00,weatherlink.com 1.10,2013-06-15 20:42:00,
2013-06-15 14:57:00,64.3,28.0,29.87,SSW,210,1.0,10.0,25,0.00,,,0.00,weatherlink.com 1.10,2013-06-15 20:57:00,
2013-06-15 16:00:00,66.4,29.0,29.86,ESE,112,0.0,7.0,25,0.00,,,0.00,weatherlink.com 1.10,2013-06-15 22:00:00,
2013-06-15 16:12:00,65.9,29.0,29.85,East,95,2.0,6.0,25,0.00,,,0.00,weatherlink.com 1.10,2013-06-15 22:12:00,
2013-06-15 16:27:00,67.0,32.0,29.85,ENE,72,1.0,6.0,27,0.00,,,0.00,weatherlink.com 1.10,2013-06-15 22:27:00,
2013-06-15 16:42:00,66.1,29.0,29.84,ESE,107,1.0,9.0,25,0.00,,,0.00,weatherlink.com 1.10,2013-06-15 22:42:00,
2013-06-15 16:57:00,67.4,27.0,29.83,East,91,6.0,18.0,22,0.00,,,0.00,weatherlink.com 1.10,2013-06-15 22:57:00,
2013-06-15 17:12:00,67.2,28.0,29.83,SE,134,2.0,8.0,23,0.00,,,0.00,weatherlink.com 1.10,2013-06-15 23:12:00,
2013-06-15 17:27:00,67.2,27.0,29.83,ESE,114,3.0,12.0,22,0.00,,,0.00,weatherlink.com 1.10,2013-06-15 23:27:00,
2013-06-15 17:43:00,65.7,25.0,29.83,ESE,107,5.0,10.0,21,0.00,,,0.00,weatherlink.com 1.10,2013-06-15 23:43:00,
2013-06-15 17:57:00,65.8,28.0,29.83,ENE,77,8.0,8.0,24,0.00,,,0.00,weatherlink.com 1.10,2013-06-15 23:57:00,
2013-06-15 18:12:00,65.7,28.0,29.84,NNE,25,1.0,7.0,24,0.00,,,0.00,weatherlink.com 1.10,2013-06-16 00:12:00,
2013-06-15 18:27:00,66.0,28.0,29.84,ESE,111,1.0,14.0,24,0.00,,,0.00,weatherlink.com 1.10,2013-06-16 00:27:00,
2013-06-15 18:42:00,64.9,28.0,29.85,ESE,113,4.0,9.0,25,0.00,,,0.00,weatherlink.com 1.10,2013-06-16 00:42:00,
2013-06-15 18:57:00,64.1,29.0,29.86,ESE,108,0.0,6.0,27,0.00,,,0.00,weatherlink.com 1.10,2013-06-16 00:57:00,
2013-06-15 19:12:00,62.5,31.0,29.89,NNE,30,1.0,17.0,30,0.00,,,0.00,weatherlink.com 1.10,2013-06-16 01:12:00,
2013-06-15 19:27:00,60.2,31.0,29.91,ESE,109,2.0,9.0,33,0.00,,,0.00,weatherlink.com 1.10,2013-06-16 01:27:00,
2013-06-15 19:42:00,59.1,32.0,29.91,East,98,0.0,4.0,36,0.00,,,0.00,weatherlink.com 1.10,2013-06-16 01:42:00,
2013-06-15 19:57:00,58.2,32.0,29.91,SSE,147,0.0,1.0,38,0.00,,,0.00,weatherlink.com 1.10,2013-06-16 01:57:00,
2013-06-15 20:12:00,56.8,33.0,29.90,SSE,147,0.0,0.0,41,0.00,,,0.00,weatherlink.com 1.10,2013-06-16 02:12:00,
2013-06-15 20:27:00,55.2,33.0,29.90,SSE,148,0.0,0.0,44,0.00,,,0.00,weatherlink.com 1.10,2013-06-16 02:27:00,
2013-06-15 20:42:00,53.6,33.0,29.90,SSE,148,0.0,0.0,46,0.00,,,0.00,weatherlink.com 1.10,2013-06-16 02:42:00,
2013-06-15 20:57:00,52.5,33.0,29.91,SSE,148,0.0,0.0,47,0.00,,,0.00,weatherlink.com 1.10,2013-06-16 02:57:00,
2013-06-15 21:12:00,51.7,33.0,29.91,SSE,149,0.0,0.0,50,0.00,,,0.00,weatherlink.com 1.10,2013-06-16 03:12:00,
2013-06-15 21:27:00,50.7,32.0,29.92,WSW,256,0.0,1.0,50,0.00,,,0.00,weatherlink.com 1.10,2013-06-16 03:27:00,
2013-06-15 21:42:00,50.0,33.0,29.93,WSW,256,0.0,1.0,52,0.00,,,0.00,weatherlink.com 1.10,2013-06-16 03:42:00,
2013-06-15 21:57:00,49.7,33.0,29.95,WSW,256,0.0,0.0,53,0.00,,,0.00,weatherlink.com 1.10,2013-06-16 03:57:00,
2013-06-15 22:12:00,49.0,33.0,29.95,WSW,256,0.0,1.0,55,0.00,,,0.00,weatherlink.com 1.10,2013-06-16 04:12:00,
2013-06-15 22:27:00,48.4,33.0,29.96,WSW,256,0.0,1.0,55,0.00,,,0.00,weatherlink.com 1.10,2013-06-16 04:27:00,
2013-06-15 22:42:00,47.7,32.0,29.96,WSW,256,1.0,1.0,56,0.00,,,0.00,weatherlink.com 1.10,2013-06-16 04:42:00,
2013-06-15 22:57:00,46.9,32.0,29.96,WSW,256,0.0,1.0,57,0.00,,,0.00,weatherlink.com 1.10,2013-06-16 04:57:00,
2013-06-15 23:12:00,45.7,31.0,29.97,WSW,256,0.0,1.0,58,0.00,,,0.00,weatherlink.com 1.10,2013-06-16 05:12:00,
2013-06-15 23:27:00,45.0,32.0,29.97,WSW,256,0.0,1.0,60,0.00,,,0.00,weatherlink.com 1.10,2013-06-16 05:27:00,
2013-06-15 23:42:00,44.7,31.0,29.98,WSW,256,0.0,1.0,60,0.00,,,0.00,weatherlink.com 1.10,2013-06-16 05:42:00,
2013-06-15 23:57:00,43.4,31.0,29.98,WSW,255,0.0,1.0,62,0.00,,,0.00,weatherlink.com 1.10,2013-06-16 05:57:00,